Theta_e
291 288 286 286 288 288 288 286 286 285 285 284 281 279 281 280 282 282 284 287 285 288 286 284 284 284 289 291 292 293 289 288 288 290 290 290 290 290 291 292 293 293 295 295 294 295 295 296 295 296 298 303 305 308 310 312 314 316 317 316 318 320 321 323 324 324 324 323 323 324 325 325 326 327 329 328 328 328 329 329 329 329 330 328 325 323
290 287 286 287 289 289 287 285 285 285 284 286 282 282 281 282 285 286 288 286 285 288 284 280 284 287 288 289 290 290 287 289 290 290 290 291 291 291 290 291 292 294 292 292 293 293 291 293 293 293 295 299 302 305 308 310 313 315 316 316 318 318 320 322 324 324 324 325 325 324 325 325 325 323 323 325 327 328 327 327 328 328 328 328 327 324
287 286 288 288 285 285 284 283 283 285 283 282 284 280 283 283 282 284 285 285 285 288 283 280 284 288 290 290 291 290 291 291 289 290 291 291 291 291 291 291 292 292 293 291 291 290 291 291 291 293 294 298 302 303 307 309 310 311 314 316 316 317 319 320 321 323 323 324 324 324 323 325 320 318 323 323 322 322 324 326 328 328 328 329 327 326
286 286 288 286 286 288 284 283 285 284 282 281 281 283 283 282 285 284 284 285 285 285 286 284 283 288 288 286 287 290 289 288 287 287 289 289 291 292 293 291 292 292 293 293 291 292 290 290 290 290 294 297 299 301 302 306 309 311 312 314 315 315 316 318 319 318 322 320 317 317 314 315 318 315 312 316 312 314 316 319 318 323 328 328 327 326
284 287 286 286 286 290 286 285 286 286 285 282 280 280 282 285 283 282 286 284 281 284 282 281 284 284 279 281 281 283 282 283 284 284 286 289 289 290 290 290 290 291 292 292 292 291 290 290 291 292 294 294 298 301 303 305 308 311 311 313 314 313 314 315 314 316 314 313 311 308 308 308 309 308 309 311 312 313 314 314 316 318 316 319 324 325
286 287 285 286 285 285 286 284 284 287 282 285 282 283 283 282 284 284 283 285 277 282 281 280 279 274 276 278 280 282 282 286 284 285 288 288 286 286 288 290 290 291 291 292 293 293 291 289 289 289 290 293 296 299 301 301 306 307 308 309 310 310 310 312 312 313 314 315 315 312 313 312 308 312 310 312 315 313 312 315 316 316 317 318 319 320
286 287 286 287 287 285 286 286 284 286 282 283 286 283 283 283 283 282 283 281 279 279 282 280 280 275 277 281 285 283 282 286 286 284 287 287 287 284 287 288 288 288 289 288 289 290 290 290 289 290 291 292 295 297 297 299 302 304 306 307 309 311 309 309 309 310 312 313 314 314 316 317 315 315 314 310 310 313 312 310 313 315 315 316 318 318
288 287 286 287 286 286 285 285 285 286 284 285 283 282 283 284 284 282 281 282 279 279 282 278 275 277 278 283 280 278 281 284 285 288 288 288 286 286 286 286 286 287 286 288 288 289 288 289 289 291 291 292 295 294 296 298 300 303 305 305 307 306 306 305 307 308 311 313 312 312 313 313 314 314 314 309 308 304 304 307 309 310 313 313 314 316
287 286 286 286 284 284 286 285 286 285 285 284 283 284 283 283 281 280 280 278 278 280 280 276 282 278 277 280 280 279 284 283 286 287 285 285 286 286 287 288 287 286 285 285 287 288 289 290 291 291 292 292 292 294 295 297 298 300 302 302 302 303 303 302 305 307 308 310 311 311 311 310 309 309 306 300 299 302 298 302 302 307 310 311 311 312
288 288 288 288 286 285 284 285 283 287 287 285 283 283 282 281 280 279 277 279 278 278 272 278 280 275 277 278 279 278 283 283 283 283 285 286 287 287 289 290 290 288 286 285 285 287 289 290 291 290 290 291 292 292 295 296 297 298 299 300 301 301 300 300 302 304 306 306 306 308 307 308 308 301 298 297 298 298 296 301 301 304 306 308 308 308
288 289 290 287 288 285 285 285 284 284 287 286 283 286 283 280 279 277 276 275 274 270 273 275 276 278 276 279 279 282 283 281 282 283 282 286 287 287 287 288 290 290 289 288 287 287 288 288 289 289 291 291 291 291 293 294 295 295 298 297 300 299 298 299 302 303 304 305 304 307 306 307 307 303 302 298 297 295 295 299 299 300 303 304 306 306
287 287 289 287 286 285 286 286 285 284 284 286 283 280 284 280 277 277 271 274 272 267 271 275 277 277 274 275 280 280 281 281 286 286 285 286 288 288 287 288 289 288 287 288 287 288 288 288 289 289 291 291 291 293 293 292 293 295 294 297 299 296 297 297 299 300 302 303 304 304 305 305 306 304 303 302 303 299 300 300 300 298 296 297 298 299
286 288 285 289 289 288 286 288 286 286 283 283 282 284 277 272 269 273 266 273 270 268 277 276 276 278 278 281 283 284 285 283 282 285 286 285 287 288 288 288 288 288 287 287 287 287 288 288 288 289 290 290 292 293 293 294 293 293 294 296 298 298 295 297 297 300 301 301 302 303 303 303 303 303 303 303 302 300 301 300 299 297 298 296 296 298
284 282 286 289 289 289 289 287 284 285 283 283 285 279 274 270 267 264 258 260 265 272 275 277 277 277 278 280 286 289 290 287 283 283 284 285 287 289 289 288 287 288 287 288 288 287 288 288 289 289 290 290 290 291 292 292 292 293 294 294 296 298 294 295 296 298 299 300 301 301 302 303 302 302 301 302 302 301 300 300 300 299 300 299 299 299
277 279 285 288 287 289 289 288 290 286 285 285 282 283 280 268 265 265 263 271 271 270 273 274 274 273 275 284 286 284 286 283 283 284 283 284 285 286 285 285 285 286 287 285 287 289 290 290 289 289 289 288 288 289 290 291 293 292 294 293 294 295 294 294 296 296 298 299 299 298 300 300 299 301 300 301 301 300 298 297 298 299 298 299 299 299
283 279 283 287 287 288 289 288 286 285 285 282 279 280 278 276 274 271 265 265 264 268 269 273 275 276 280 282 284 284 283 284 284 283 283 285 286 283 283 284 285 286 287 286 288 290 290 289 289 289 288 288 288 288 288 291 292 293 293 293 294 296 295 294 295 296 297 298 297 297 298 299 299 298 298 297 295 297 298 298 298 299 298 298 298 298
280 281 284 285 286 287 288 287 288 287 284 283 282 277 279 278 278 269 267 269 269 267 272 268 277 280 280 282 287 284 283 286 285 283 284 284 284 282 285 285 284 285 285 286 288 288 290 290 290 290 289 288 287 288 290 291 292 293 293 293 293 294 292 294 295 296 296 296 295 297 297 297 297 297 298 299 298 298 297 297 298 298 298 296 296 297
282 279 284 286 287 287 287 285 286 284 285 283 278 281 281 281 279 277 272 264 261 268 271 269 275 275 275 278 280 280 284 286 283 283 282 282 282 285 286 285 285 286 285 285 286 286 286 287 288 289 288 288 289 289 289 290 291 292 293 293 294 293 295 295 294 295 295 296 296 296 296 297 298 298 298 298 298 297 297 296 295 294 295 296 297 296
284 280 284 284 284 287 285 288 287 287 286 283 280 284 284 278 276 275 270 269 265 264 266 269 271 273 277 280 279 282 282 283 286 286 285 287 287 286 285 285 285 283 285 287 288 289 289 288 289 289 289 289 289 289 289 290 290 291 291 292 293 295 295 295 295 294 294 295 296 297 297 297 297 296 297 297 297 295 296 296 296 296 297 295 294 294
285 278 279 285 285 286 286 286 283 284 286 285 285 284 284 279 275 272 275 269 271 266 262 269 265 277 278 278 279 284 280 280 282 282 285 285 285 284 285 285 286 285 284 285 288 289 289 290 290 289 290 290 290 290 290 290 290 292 292 292 292 292 292 292 292 293 294 294 294 295 293 293 295 296 296 296 296 296 296 297 296 296 295 296 295 294
285 283 276 282 284 285 284 284 284 285 282 282 282 281 285 279 281 279 276 273 273 263 261 265 270 273 276 280 281 286 284 282 283 287 287 286 285 284 284 285 286 285 286 288 288 290 291 291 291 290 287 287 287 287 288 290 292 292 292 293 292 294 295 294 294 292 294 293 293 293 294 294 293 294 295 294 295 295 296 295 295 295 296 292 293 292
283 281 279 281 282 282 282 284 284 286 287 286 285 283 286 280 277 274 275 275 266 271 268 262 273 273 278 280 285 285 286 285 283 285 285 285 282 282 286 288 285 287 286 284 287 287 288 287 288 288 288 287 288 290 289 289 290 291 292 293 293 292 294 294 294 293 294 292 293 292 293 293 291 293 292 293 293 294 295 294 294 293 290 292 293 292
286 281 282 277 282 285 285 286 283 285 285 284 284 283 285 283 280 273 272 272 269 272 270 266 266 276 282 283 283 282 281 282 281 282 285 287 288 288 286 284 285 285 287 289 290 288 287 286 286 285 285 286 285 287 286 287 288 290 289 289 290 290 293 292 294 293 292 292 292 292 291 290 290 290 290 290 291 291 291 291 289 289 291 291 290 289
290 280 279 278 278 280 283 283 285 283 287 286 284 281 283 283 281 279 273 274 279 271 272 269 267 277 284 281 281 281 281 280 279 279 283 287 284 283 284 287 288 288 289 286 286 286 286 285 284 285 287 288 287 286 286 287 287 288 289 289 288 289 291 290 291 290 290 290 291 290 288 289 289 288 289 289 289 290 289 288 289 288 290 290 289 290
284 282 283 271 271 275 278 282 282 285 285 281 281 281 283 281 278 277 276 275 275 275 276 275 272 279 281 281 282 283 283 286 287 285 281 289 290 288 287 287 286 286 287 287 287 287 286 287 287 288 287 287 287 286 286 286 287 287 288 287 288 289 290 289 288 288 289 289 290 288 288 288 287 287 288 289 288 289 288 287 288 287 289 289 289 290
286 282 281 275 275 273 272 274 278 281 282 282 280 282 283 285 281 281 278 274 275 273 276 273 278 282 284 281 285 285 283 286 286 285 285 284 286 288 288 286 285 286 287 286 287 288 290 288 287 288 288 288 287 287 288 287 287 287 287 288 287 288 288 288 287 288 288 288 289 288 287 287 287 287 288 288 288 288 288 287 287 288 288 288 290 289
281 281 284 283 281 279 281 280 283 285 282 283 283 284 283 285 284 284 279 275 278 278 275 280 283 284 281 282 285 286 284 287 289 288 289 289 288 286 284 284 285 285 286 286 286 286 285 286 287 288 287 288 287 287 287 287 288 288 287 288 288 287 287 287 287 288 288 288 288 287 287 287 287 287 287 287 288 287 287 287 287 287 288 287 288 289
279 281 283 283 283 284 283 281 282 287 284 285 284 283 285 284 284 284 282 281 285 275 277 281 283 281 285 283 284 284 285 283 285 286 286 285 285 286 286 284 287 285 285 285 286 287 287 286 287 288 288 288 289 288 289 289 288 288 288 289 289 288 287 287 287 288 288 287 286 287 288 287 286 286 287 287 287 287 287 287 286 287 287 286 288 288
282 280 282 282 282 283 281 281 282 284 285 285 285 284 283 284 283 282 284 286 284 281 281 285 282 282 286 287 288 288 288 288 288 289 287 286 285 284 285 287 286 287 287 288 289 288 287 288 288 288 288 288 287 289 288 289 290 289 289 288 288 286 287 286 287 287 287 287 287 288 287 287 286 286 286 286 287 287 287 287 286 286 286 286 287 288
286 279 280 280 282 282 280 282 282 284 283 284 283 284 285 284 283 285 286 287 286 284 286 287 284 284 288 288 287 290 289 288 286 285 285 286 287 286 286 286 286 288 288 289 289 288 287 287 286 286 286 287 288 288 288 289 289 288 288 288 288 288 288 287 288 287 287 287 287 287 287 287 286 287 286 286 286 287 286 286 286 286 286 287 287 287
287 281 284 280 279 279 281 281 280 282 283 282 282 283 284 284 285 285 286 286 286 285 286 285 284 284 289 288 285 287 287 286 287 287 289 288 286 286 287 287 288 288 288 288 287 286 286 285 285 285 286 287 287 287 287 287 287 287 287 288 288 288 287 286 286 286 285 287 287 286 286 287 287 286 287 287 286 286 286 286 286 285 286 286 286 287
286 280 280 278 278 277 279 281 280 279 280 279 281 282 282 282 282 284 283 286 284 284 286 285 284 285 289 287 289 287 285 288 289 290 290 290 289 287 288 289 288 288 288 288 286 285 284 284 285 285 286 286 286 286 286 287 286 286 287 287 287 287 286 286 286 286 286 285 286 286 286 285 286 286 287 285 286 286 286 285 284 285 286 286 286 286
282 281 280 278 277 278 277 279 279 279 279 278 281 284 285 285 285 285 287 287 287 289 285 283 285 290 290 287 287 286 288 288 288 289 289 289 288 287 288 289 289 288 287 286 285 285 285 286 285 284 284 284 285 286 285 285 285 286 286 286 286 285 285 286 285 286 286 285 285 285 285 285 285 285 286 286 286 285 284 284 284 285 285 286 286 283
281 280 278 280 278 278 274 278 279 280 276 279 290 291 289 286 285 284 285 286 288 288 287 290 291 290 286 285 287 287 287 288 290 291 291 293 291 287 287 288 287 285 284 283 283 284 284 283 284 284 284 284 284 284 284 283 284 285 284 284 284 284 285 285 286 285 286 286 286 285 285 284 284 285 285 285 285 284 284 283 285 285 285 285 284 285
283 283 282 283 280 279 277 280 280 276 279 290 289 289 292 291 289 287 289 289 289 289 289 288 289 289 290 289 289 288 289 289 288 289 289 287 288 289 288 285 284 285 286 286 286 285 284 284 284 284 284 285 284 284 283 284 283 284 284 284 284 284 284 284 284 285 285 285 286 285 286 286 285 285 285 284 284 283 283 284 285 285 285 285 285 285
286 286 285 284 285 285 280 282 276 278 287 287 288 287 286 287 288 287 286 288 287 288 289 288 290 291 292 290 289 289 289 289 288 285 284 285 284 287 286 287 286 285 286 287 287 286 285 285 285 284 285 284 283 284 283 284 283 283 283 283 283 283 283 283 284 285 285 285 285 285 285 285 285 285 285 285 284 283 284 284 284 285 285 284 284 284
290 287 286 283 287 281 282 282 282 287 285 286 286 285 286 284 284 285 283 286 290 290 289 289 290 291 291 292 291 289 286 288 288 288 287 285 286 284 286 286 286 286 286 286 285 286 284 284 284 284 284 283 283 283 285 284 283 283 283 284 284 283 284 284 285 286 285 285 285 285 285 285 284 285 285 285 284 284 285 285 285 284 281 283 284 284
291 287 287 284 282 285 282 280 281 281 278 285 290 287 289 290 291 291 289 287 291 292 292 291 290 291 292 291 288 285 285 289 287 287 287 286 284 285 284 284 283 283 284 285 284 283 283 283 283 282 282 282 282 283 283 282 282 282 283 284 283 283 283 284 285 285 285 285 285 285 284 284 284 284 284 284 284 285 285 285 284 284 282 283 284 284
290 291 288 285 284 283 282 279 279 277 281 288 286 287 288 287 291 289 287 285 291 289 290 291 291 292 292 291 288 287 287 284 287 285 288 285 284 284 285 285 285 286 286 285 285 285 284 283 283 282 282 283 284 284 282 281 280 281 282 283 283 282 284 285 285 285 285 285 284 284 283 283 282 282 283 283 284 284 285 285 285 285 280 283 282 283
287 287 286 284 282 284 282 280 278 282 282 284 282 282 283 286 292 289 279 281 289 289 291 292 292 292 292 291 288 288 288 285 288 288 288 286 285 284 283 284 284 284 284 283 283 284 284 283 283 283 282 283 284 283 282 280 281 281 283 283 282 283 284 284 284 284 284 284 284 283 283 283 282 282 282 283 283 284 284 284 283 283 282 282 281 282
284 284 285 281 283 283 284 282 283 284 286 284 283 282 282 288 290 282 278 286 288 289 290 292 292 293 291 287 288 287 289 289 286 286 286 284 284 283 283 283 284 284 285 284 284 284 283 283 282 282 282 282 283 282 282 281 283 283 282 282 282 283 284 284 283 284 283 283 283 283 283 282 280 282 282 281 282 282 282 281 282 282 281 281 281 279
284 285 285 285 283 282 283 281 282 285 287 285 282 283 286 288 281 280 288 285 287 287 288 289 291 291 289 288 289 287 284 283 284 283 284 284 284 283 283 283 283 283 283 283 283 282 282 282 282 282 282 282 282 281 281 280 282 282 282 281 282 282 283 283 283 283 282 282 282 282 282 282 281 280 281 280 280 280 281 279 280 280 279 278 278 279
284 284 281 282 284 285 284 281 281 277 287 288 287 286 286 282 284 289 284 285 285 285 286 285 286 287 287 284 283 284 284 283 284 284 283 282 283 283 283 283 283 282 282 281 283 282 282 282 283 282 282 282 280 280 280 278 279 280 279 280 282 283 283 282 282 282 282 281 281 281 281 281 281 281 280 280 279 278 279 280 278 279 277 276 277 278
289 283 283 284 287 281 281 279 280 286 288 288 292 287 288 290 285 285 288 287 284 282 283 282 284 283 283 285 284 283 283 283 283 283 283 282 281 282 282 282 281 281 281 281 281 280 279 281 282 282 283 284 283 282 281 280 281 282 282 282 283 282 282 282 282 281 280 281 281 281 281 281 281 281 279 279 279 278 278 279 279 278 277 277 277 278
288 285 287 283 287 285 283 286 288 287 287 290 289 287 286 290 284 286 286 287 285 283 280 283 284 281 282 285 285 285 284 284 285 284 285 283 282 282 282 281 281 281 281 281 281 279 278 280 280 282 282 283 284 284 283 282 282 281 281 282 282 281 281 281 280 280 280 280 280 280 281 281 281 280 279 279 276 278 279 279 277 279 278 274 276 276
281 283 283 284 283 284 284 285 285 284 284 285 285 285 284 285 283 282 283 286 285 284 283 285 283 282 282 284 285 282 283 284 284 283 283 282 282 281 281 280 280 280 280 280 280 280 280 281 281 281 281 282 282 282 283 282 281 280 280 281 280 280 280 279 279 279 279 279 280 280 280 280 280 280 279 278 277 277 278 278 278 278 279 277 277 277
283 281 285 283 282 284 281 286 287 287 284 283 285 282 281 282 283 283 283 284 283 283 282 283 283 283 282 282 284 283 282 281 282 281 280 280 280 280 280 280 280 280 280 280 281 280 280 279 279 278 277 277 278 279 280 280 280 279 278 278 279 279 278 278 278 278 278 278 278 279 279 278 279 280 280 277 277 277 276 276 277 277 278 278 278 278
281 280 282 282 282 282 282 282 282 282 280 280 281 284 284 283 280 280 281 282 283 282 282 282 282 282 281 282 283 283 281 281 282 281 281 281 281 281 281 281 281 280 280 279 278 277 275 275 273 274 274 275 276 276 275 275 275 276 276 277 277 277 276 276 277 277 276 276 277 278 278 278 279 279 279 280 279 279 279 277 276 277 278 279 279 278
282 284 277 279 284 282 281 282 281 283 284 284 281 281 280 281 281 280 281 282 282 281 280 279 280 280 281 282 282 282 280 279 280 280 279 280 280 280 279 278 278 278 277 276 275 273 273 272 272 272 272 272 274 273 273 273 274 275 275 276 275 276 275 275 276 275 275 276 276 277 278 278 278 278 279 279 279 279 279 279 280 279 280 281 280 280
281 281 279 279 278 277 283 284 282 279 277 283 284 284 281 281 281 281 280 281 281 281 280 279 277 277 277 277 279 280 278 277 276 276 275 277 276 275 274 274 273 273 273 272 272 270 269 269 269 269 269 270 271 271 271 272 273 274 274 274 275 274 273 273 273 273 273 274 275 275 276 276 277 277 278 278 278 279 280 279 282 281 280 280 282 283
283 282 281 279 279 280 284 286 286 289 287 283 282 279 280 280 280 280 280 280 278 279 280 279 277 276 275 273 274 275 275 274 274 274 274 274 274 272 272 271 270 270 271 270 268 267 267 267 268 267 267 269 270 270 271 272 274 275 275 276 275 273 271 271 271 271 271 272 272 273 274 275 275 276 277 277 278 278 278 278 280 283 285 285 283 284
Wind_Speed
1 6 7 9 8 7 5 4 4 3 7 5 5 4 3 2 1 2 2 2 0 1 3 3 4 5 11 11 11 10 0 3 6 8 8 8 8 8 9 8 9 9 16 3 2 5 6 7 6 5 5 7 7 8 9 10 11 12 13 11 13 11 10 9 9 9 10 10 9 7 10 10 8 9 9 7 5 5 5 5 7 8 8 11 11 10
3 4 7 6 8 9 6 7 9 8 4 6 6 5 1 1 1 0 0 2 3 1 1 1 2 8 11 10 11 7 2 8 10 10 9 11 9 8 8 10 11 13 5 5 6 4 4 5 5 4 4 5 7 10 10 13 15 13 11 12 12 7 9 11 11 10 10 10 10 10 11 9 7 6 7 9 8 8 6 6 6 6 5 5 10 10
3 9 7 5 4 10 7 5 4 6 6 3 6 4 4 2 2 3 1 3 4 0 4 1 4 9 11 10 11 8 10 6 5 6 7 6 9 8 7 10 12 8 12 5 5 4 5 5 5 4 5 6 11 8 10 11 7 7 9 11 9 9 10 11 11 10 10 9 8 9 7 8 5 4 6 7 5 5 6 8 9 8 7 7 7 9
3 5 8 5 7 10 3 4 9 8 6 6 5 4 5 2 2 1 3 2 4 2 2 1 5 11 8 6 11 12 6 6 5 6 9 7 11 13 11 6 8 11 11 10 5 6 6 5 4 4 5 8 5 6 6 7 10 8 9 10 10 10 9 9 10 10 8 6 4 2 1 2 4 4 3 3 1 3 4 6 4 5 9 9 6 6
6 1 1 9 5 10 6 2 6 6 2 1 4 4 4 2 2 2 1 0 1 1 2 2 3 9 4 5 5 2 3 3 4 4 6 9 9 9 8 9 8 12 10 11 9 7 6 5 6 6 6 4 6 8 8 8 9 8 11 9 8 7 7 6 6 8 5 5 4 4 4 4 3 3 3 4 5 5 5 3 5 6 2 4 8 8
1 1 3 7 3 4 7 3 4 8 2 0 4 5 4 4 6 0 1 2 3 1 5 3 3 3 4 6 8 10 7 8 3 6 9 9 5 3 7 11 6 7 8 10 12 8 3 5 5 5 4 5 6 7 6 4 6 6 6 5 6 5 6 7 7 8 7 8 8 7 7 6 3 6 6 8 10 8 8 10 6 5 6 6 6 5
1 0 1 5 6 4 5 5 5 5 6 4 4 4 2 6 6 6 3 3 0 1 2 1 1 5 6 4 6 5 8 12 8 3 11 8 7 5 8 7 7 7 8 6 7 7 6 6 5 6 6 5 6 6 3 4 5 5 5 5 6 7 5 5 6 7 7 7 7 10 11 10 10 10 8 6 5 7 7 4 6 7 6 7 7 7
2 1 4 4 5 5 5 4 4 8 8 4 0 6 7 8 7 5 5 2 1 1 3 4 3 1 7 8 4 4 5 9 10 11 8 7 7 7 7 7 6 7 6 7 7 7 6 5 5 7 4 4 6 4 2 3 3 5 5 4 5 4 4 4 5 7 8 9 8 8 9 9 9 10 9 8 7 4 4 6 6 5 5 6 5 6
2 4 4 4 2 4 7 3 3 4 6 1 2 5 4 6 5 5 5 5 0 1 5 4 1 0 5 8 3 2 3 7 10 10 8 7 7 6 7 7 6 6 6 5 7 7 5 5 5 4 3 3 3 3 2 3 3 3 3 3 3 4 4 4 6 7 7 7 8 9 8 8 6 6 5 3 2 4 4 5 4 5 5 5 5 5
3 1 3 5 5 6 2 1 1 3 4 1 6 8 8 7 7 4 4 4 1 1 5 3 1 2 9 6 6 2 2 7 8 6 6 6 6 6 7 7 6 5 4 3 6 7 6 5 5 3 2 1 1 1 0 0 1 1 2 3 4 4 4 4 5 6 6 6 6 7 7 8 7 5 3 3 4 4 4 5 5 4 4 5 4 4
1 3 4 3 2 2 5 3 0 2 1 9 4 8 7 8 5 3 6 2 3 1 5 4 4 1 5 5 5 3 3 3 2 4 4 5 5 5 4 4 5 5 5 4 3 3 3 3 3 2 3 2 2 2 2 3 2 3 3 4 4 4 4 5 6 6 8 6 6 7 8 9 8 7 6 4 4 3 3 5 5 6 6 5 5 4
2 1 1 0 3 3 3 5 5 3 4 4 3 4 6 4 7 5 5 5 1 5 4 1 1 0 6 6 5 7 5 5 2 3 5 5 7 7 6 6 6 4 4 5 4 4 4 4 3 5 5 4 2 2 3 2 3 3 4 4 5 4 4 4 5 5 6 6 7 6 7 8 8 7 7 8 8 7 8 7 7 5 4 4 4 4
2 2 1 3 3 5 3 9 5 2 4 5 7 7 6 2 4 2 4 1 4 5 1 2 2 1 9 10 7 7 10 5 6 7 6 5 8 8 7 8 7 5 4 4 4 4 4 1 3 4 3 2 2 1 0 1 1 2 3 4 5 4 4 5 4 6 6 6 7 8 7 7 6 6 7 8 7 6 7 6 6 5 6 5 5 6
3 1 2 2 1 3 4 10 2 1 2 4 8 6 6 2 1 2 2 1 5 5 4 1 1 4 4 8 13 17 13 2 4 7 7 6 7 9 9 9 8 8 5 5 5 5 4 3 0 1 1 2 2 0 0 0 1 1 2 3 4 4 4 4 4 5 5 6 6 6 6 7 6 6 6 6 7 6 6 6 7 7 8 8 9 8
3 4 6 6 2 2 1 3 11 8 8 5 1 6 8 8 5 3 4 4 5 4 2 3 1 6 3 1 1 7 8 5 4 5 5 6 9 9 6 9 9 8 6 4 5 4 5 3 2 2 2 3 3 2 1 0 0 1 1 2 3 3 3 4 6 5 6 6 5 5 5 5 5 6 6 6 6 6 6 6 7 7 6 7 7 8
7 3 3 2 1 1 7 1 3 6 5 0 3 6 5 5 6 1 3 2 0 1 2 1 6 4 5 3 9 5 6 7 4 5 2 6 8 5 4 3 5 5 6 4 5 6 5 2 2 1 3 4 3 3 3 1 0 1 2 2 4 5 4 5 5 6 6 6 5 5 6 7 6 5 5 4 4 5 6 7 7 7 7 6 6 6
3 4 1 6 3 2 0 1 1 1 7 4 4 3 4 2 10 6 1 1 1 3 7 1 8 7 8 7 10 6 4 8 1 4 2 5 5 4 3 2 4 4 4 4 4 5 7 6 2 1 1 2 3 3 2 2 2 3 3 3 4 4 4 5 6 6 6 5 5 6 6 6 6 7 7 8 8 8 7 6 6 6 6 5 4 5
9 3 2 3 1 1 0 1 3 5 2 8 1 7 2 2 5 5 3 2 4 3 8 2 8 5 3 7 5 4 3 8 5 5 3 5 4 3 4 3 3 4 5 4 4 5 5 5 6 4 2 2 2 2 3 3 3 4 4 4 5 4 7 7 6 6 6 7 7 7 7 7 7 7 7 7 7 6 6 5 5 4 5 6 7 6
6 2 0 1 0 5 2 0 4 2 2 3 3 4 6 3 1 2 4 1 0 2 6 4 2 5 7 7 5 3 1 5 8 5 1 4 4 3 4 4 6 5 5 5 5 5 4 4 3 3 3 1 1 2 2 3 3 2 3 4 5 6 7 7 6 5 5 5 6 6 7 7 7 6 6 6 6 5 6 7 6 7 7 5 4 6
1 5 2 1 1 1 2 3 8 2 3 2 3 4 0 3 2 4 6 3 5 4 2 8 3 7 7 6 8 7 4 3 5 5 6 7 6 4 4 3 4 3 3 3 3 3 3 3 3 3 5 6 6 4 3 2 1 1 2 2 3 4 4 4 5 4 5 6 5 6 4 5 5 6 7 7 7 7 7 7 7 7 6 7 6 6
3 1 3 1 2 2 3 4 9 10 9 3 3 1 0 2 1 4 1 3 4 5 5 2 7 6 7 7 7 10 8 7 7 7 8 4 5 4 4 3 1 1 1 1 1 2 4 5 6 6 5 5 4 3 3 5 6 6 6 6 4 5 6 5 6 5 6 4 5 5 6 6 6 7 6 6 6 7 7 6 6 6 6 4 6 6
3 2 7 2 2 4 6 1 2 8 7 9 11 11 12 9 4 4 7 3 1 3 4 3 10 3 5 3 8 8 10 8 4 2 4 3 2 2 2 1 1 1 1 1 1 2 3 4 5 5 7 6 7 7 7 7 6 6 6 5 6 5 6 6 7 6 6 4 5 5 6 6 5 5 5 7 7 8 8 6 6 6 4 6 6 6
4 3 8 4 7 8 2 0 2 1 1 1 3 6 6 3 7 5 6 4 2 1 5 2 1 11 7 4 5 5 3 3 4 4 1 1 1 1 1 2 2 3 1 2 1 2 3 3 4 4 4 4 4 5 5 5 4 5 5 5 5 5 8 4 7 6 5 5 5 7 6 5 5 5 6 7 7 7 7 6 5 5 7 7 6 6
6 4 4 1 2 3 2 2 1 1 1 1 2 2 5 7 5 6 3 7 8 2 1 1 2 9 2 2 2 4 5 5 4 4 3 0 1 2 1 1 3 3 5 3 2 1 2 3 4 4 4 5 4 4 5 4 4 5 5 5 4 6 8 6 6 7 5 4 6 7 5 6 5 5 6 7 6 7 6 5 5 5 7 7 6 7
4 3 8 2 2 3 3 2 2 2 1 3 2 3 3 3 5 2 5 1 1 8 8 8 8 8 2 4 3 2 3 0 1 3 4 0 1 2 3 3 3 4 3 3 4 3 2 3 4 2 2 2 3 3 4 4 4 4 5 4 4 5 6 5 5 5 4 4 7 8 7 5 4 5 6 7 6 7 5 6 6 5 7 6 7 7
4 4 8 8 11 10 7 8 13 13 10 2 1 1 4 8 6 4 4 1 4 3 7 5 10 4 2 3 3 1 1 1 1 2 2 3 3 3 3 3 3 3 4 4 5 7 7 5 5 5 5 5 4 4 5 4 4 4 4 4 4 5 5 5 4 4 3 4 7 9 5 3 3 5 6 6 6 7 6 6 5 6 6 6 7 6
3 1 5 9 13 14 13 3 2 11 5 6 6 9 6 6 9 6 5 4 11 6 8 9 12 12 3 1 1 4 2 5 5 2 4 4 5 7 6 4 4 4 4 5 4 4 4 4 3 4 3 2 2 2 3 3 4 4 4 4 3 2 4 4 3 3 3 5 8 6 3 3 4 5 6 6 7 6 5 6 6 6 7 6 7 8
3 3 8 8 10 10 4 3 6 8 9 11 10 9 11 10 10 11 11 14 13 2 9 10 10 8 15 4 5 6 5 4 4 5 5 4 6 7 3 2 5 5 4 2 1 2 3 4 5 6 7 7 6 7 7 6 5 5 6 7 7 7 5 5 4 4 5 6 4 4 5 4 4 5 6 6 6 6 6 6 5 6 6 5 8 9
5 5 3 4 8 7 1 2 6 4 7 9 12 12 12 12 11 14 16 19 8 9 17 14 7 11 20 11 11 11 8 10 10 11 9 5 4 3 1 2 3 4 5 3 3 4 5 6 6 7 7 6 6 8 8 8 8 7 7 6 5 4 3 4 5 4 3 5 5 5 4 5 4 4 5 5 5 5 6 6 6 6 6 6 7 7
3 4 2 2 7 6 3 4 3 8 4 1 5 9 14 14 16 19 20 19 17 13 14 17 8 16 19 7 12 13 7 6 5 2 2 3 5 2 1 3 4 5 5 5 4 3 3 4 4 5 5 6 6 6 7 6 6 5 6 6 5 4 5 6 7 7 6 6 5 5 5 5 5 5 4 5 5 6 5 5 5 5 6 7 7 6
4 3 4 2 2 5 4 3 3 7 6 6 6 6 9 13 16 19 18 17 13 10 11 12 11 14 15 6 4 6 2 3 1 3 7 7 5 4 4 5 5 5 5 5 4 3 2 2 2 3 4 5 6 6 6 6 6 6 5 6 7 7 7 6 6 5 4 6 5 5 5 5 6 5 5 5 5 5 5 6 5 5 6 6 6 7
3 3 3 3 3 5 1 6 4 2 0 3 5 6 9 11 12 11 11 9 7 12 15 14 14 16 12 9 6 4 4 6 8 9 9 8 5 3 5 7 6 7 6 5 3 3 3 4 4 4 4 4 5 5 5 6 6 6 7 8 8 8 7 6 5 5 5 4 5 5 5 5 5 5 6 5 5 5 5 5 5 6 6 6 7 7
2 4 3 2 4 5 1 4 7 5 3 4 11 16 18 13 10 6 9 11 15 15 14 11 17 18 9 6 6 4 6 9 8 8 7 6 6 6 7 8 7 7 5 4 3 2 2 2 2 3 4 3 4 5 5 5 5 6 6 7 7 7 7 7 5 6 6 5 4 5 5 5 5 5 5 5 5 5 4 5 5 6 6 8 7 4
3 4 3 2 4 1 2 5 4 6 9 13 10 13 12 16 15 12 11 17 18 11 11 15 16 9 1 5 8 9 10 8 10 10 8 8 7 6 7 7 6 4 3 1 1 1 2 2 2 2 2 3 4 3 4 4 4 5 4 5 4 4 5 5 6 5 6 6 5 5 5 5 5 5 6 5 5 5 5 4 7 6 6 6 5 6
3 2 3 2 3 3 2 3 4 12 15 5 3 1 11 14 10 18 21 18 13 12 10 12 13 14 13 7 6 6 8 7 6 7 6 6 5 6 6 5 4 4 2 1 1 1 1 2 2 3 4 4 4 4 3 3 3 4 4 4 5 4 5 5 5 5 5 6 7 6 6 7 6 7 7 5 5 5 5 6 6 6 6 6 6 7
5 4 2 1 3 3 4 6 7 7 2 3 4 1 1 3 6 8 11 12 9 10 13 16 20 19 15 7 6 6 7 8 3 3 5 2 3 4 5 5 4 3 3 1 1 1 2 3 3 3 4 4 3 4 2 4 4 4 5 4 4 5 4 4 5 5 6 7 7 7 6 6 7 7 7 6 6 5 6 5 6 7 6 5 6 6
9 4 3 2 4 6 4 9 9 5 9 5 4 4 6 7 7 10 10 13 15 13 13 14 17 16 14 14 10 5 3 1 3 5 0 1 1 1 4 5 4 3 1 1 0 1 2 2 2 3 3 4 4 4 5 4 4 4 5 5 5 5 5 5 6 7 7 7 7 7 7 6 7 8 8 7 7 7 7 7 7 6 4 6 7 7
8 9 5 7 4 6 3 2 0 5 12 14 10 0 4 7 12 13 11 11 7 13 16 15 15 16 15 10 5 3 3 2 9 8 2 2 1 3 1 2 1 1 1 0 0 1 2 2 2 3 1 2 3 4 4 4 5 5 5 5 5 5 5 5 6 6 6 7 7 7 7 7 6 7 8 7 8 8 8 6 5 5 4 6 7 8
7 7 7 10 3 5 6 6 6 5 8 4 3 5 5 4 6 5 3 12 7 6 8 10 13 15 14 10 6 7 4 6 11 6 7 5 4 3 6 3 2 1 0 0 0 1 2 3 2 3 3 2 4 5 4 4 4 4 4 4 5 4 6 7 8 8 9 9 8 7 6 6 6 6 7 7 8 7 8 8 7 6 4 6 6 8
10 6 5 9 8 7 6 7 8 4 6 4 3 3 3 5 7 8 4 9 3 9 10 12 15 17 15 10 6 8 8 8 10 7 7 7 6 5 4 5 3 2 1 1 1 0 1 1 2 2 3 5 5 4 4 2 3 4 6 7 5 6 8 8 8 7 7 7 7 7 7 6 6 6 6 8 8 7 7 6 7 6 6 6 6 7
7 5 8 13 10 10 12 8 3 6 3 3 4 2 4 3 7 8 13 6 4 9 8 10 11 14 7 5 8 8 10 5 3 5 9 5 7 3 1 1 1 2 2 1 2 1 1 1 2 3 3 3 4 4 4 4 6 7 6 6 6 7 7 7 7 7 7 8 8 7 7 6 5 8 7 5 8 8 7 6 7 7 6 7 7 6
6 5 3 7 10 10 9 10 9 5 4 6 1 4 5 6 7 11 6 1 8 6 4 4 9 4 4 8 8 4 2 4 6 7 7 6 6 4 3 2 2 2 1 1 3 4 4 4 4 5 5 5 7 6 5 5 7 6 7 6 7 7 7 7 7 7 7 8 9 8 8 7 7 5 6 6 6 8 8 5 5 6 6 6 6 8
9 7 6 8 5 5 5 8 6 11 2 8 10 2 3 5 8 7 2 0 1 3 4 4 4 4 5 2 2 6 7 5 6 7 6 5 6 5 4 4 5 4 5 5 6 6 6 6 7 6 5 4 4 5 4 5 5 5 5 5 6 7 7 7 7 7 7 8 8 8 8 8 7 8 6 7 6 6 9 7 6 7 5 6 7 7
8 7 5 6 8 7 10 9 7 4 3 7 13 10 9 12 3 5 6 2 0 2 4 2 1 3 3 7 9 6 6 8 5 6 6 4 4 3 3 3 3 3 3 3 3 4 5 5 5 5 5 4 5 5 5 6 7 7 8 9 8 9 8 7 7 7 8 8 8 9 9 9 9 8 7 7 8 7 8 9 7 7 7 6 6 7
6 10 6 8 6 9 7 7 3 2 5 8 3 1 3 6 1 4 2 4 6 4 3 4 4 2 4 9 8 9 7 4 7 5 7 4 4 4 4 2 3 3 3 4 4 4 4 5 6 7 6 5 5 5 5 5 7 8 9 10 10 11 11 11 11 10 9 10 9 9 9 10 8 8 7 6 6 8 9 8 6 9 7 4 6 6
3 1 1 2 4 2 2 1 0 0 2 4 1 1 1 1 0 2 3 2 3 4 7 8 6 6 6 6 12 3 6 7 7 5 5 4 4 3 3 4 4 4 4 4 5 6 5 5 5 6 8 7 6 6 5 6 6 8 9 8 9 9 9 9 10 10 9 9 9 9 9 10 11 8 6 6 6 6 6 7 8 8 9 7 6 7
4 2 1 4 2 3 7 5 8 5 1 1 2 0 0 0 1 2 3 2 3 5 4 3 8 7 7 6 9 10 7 5 7 4 4 4 4 4 4 5 5 6 7 7 7 7 7 6 6 6 6 7 5 5 6 5 5 5 6 7 8 8 9 9 9 9 9 10 10 9 7 8 8 9 9 6 5 6 6 6 6 7 9 8 7 7
3 3 3 4 4 5 7 2 5 3 3 2 2 2 4 2 1 1 1 2 5 4 4 5 6 7 4 7 7 10 6 4 7 5 4 3 3 3 4 4 5 5 5 4 6 5 4 5 4 5 6 7 7 6 6 6 5 6 6 6 6 7 8 8 8 9 9 10 9 8 8 9 10 10 9 9 7 8 9 6 5 7 9 10 8 7
2 5 4 5 7 5 3 3 2 3 2 2 3 3 3 3 4 3 4 7 7 10 8 6 4 3 5 7 7 10 9 5 5 4 4 3 3 3 3 4 4 5 4 5 4 4 4 4 5 5 6 6 6 6 6 5 6 6 7 6 6 8 9 10 10 11 10 10 9 10 9 8 9 9 9 10 10 8 7 8 9 9 10 10 7 8
3 6 2 3 4 4 10 8 5 2 3 5 8 7 4 3 5 6 5 7 6 10 8 11 7 6 7 5 4 7 9 6 4 4 4 3 3 3 3 4 4 4 4 3 4 4 4 5 5 6 7 7 7 8 8 7 7 6 5 5 6 7 9 10 11 11 11 10 10 10 10 10 10 9 9 9 10 11 13 10 11 10 10 12 11 12
9 6 6 7 6 7 7 9 10 11 8 4 3 5 4 5 6 8 6 6 4 4 7 12 11 6 7 7 5 8 7 7 5 4 4 3 3 3 2 3 4 4 4 3 4 3 4 4 5 5 5 6 6 7 8 8 8 6 7 8 8 9 10 11 11 10 10 11 10 12 12 11 10 10 9 9 9 9 10 13 14 12 15 17 19 18
Wind_Direction
106 131 174 189 188 186 192 169 156 163 143 107 84 101 166 162 272 276 285 279 316 107 242 244 278 277 278 273 276 280 100 288 277 270 258 257 262 258 257 252 250 249 244 287 231 232 236 239 229 222 204 211 203 205 202 204 208 206 205 195 210 205 195 194 196 196 194 198 204 211 210 216 211 211 214 218 215 209 205 190 191 185 191 188 190 194
67 141 228 200 192 184 158 127 108 75 61 138 138 135 195 238 129 237 127 346 316 153 282 41 326 274 263 274 271 280 330 271 251 256 261 259 249 249 249 260 252 246 291 295 289 286 280 265 261 239 213 194 198 219 201 205 208 205 201 202 211 190 195 199 198 196 197 199 201 198 207 208 202 197 199 209 209 213 203 196 192 191 205 182 184 186
155 198 223 197 120 96 98 90 71 119 114 61 145 154 103 246 249 292 294 339 328 74 266 17 346 281 275 267 272 260 252 242 237 219 239 243 264 258 249 250 266 287 276 265 257 284 267 264 262 234 220 216 217 215 203 216 207 203 203 210 205 197 195 201 197 192 201 201 203 201 208 199 203 213 203 205 199 197 206 208 201 198 203 198 184 182
170 280 236 148 140 111 64 89 96 76 70 112 102 119 195 234 122 251 284 341 354 70 320 321 325 284 284 283 266 266 253 266 254 250 254 235 247 251 249 251 264 272 274 283 273 259 254 256 256 242 232 227 226 231 216 209 208 205 208 209 202 201 198 196 197 199 202 194 185 186 146 191 177 186 178 181 134 205 218 226 230 220 196 194 202 182
186 258 345 133 151 139 135 125 118 121 123 5 115 122 120 163 225 149 185 350 333 39 55 3 307 301 330 331 327 323 329 311 291 325 278 260 243 263 288 282 247 259 273 284 289 269 270 277 258 229 231 226 220 223 219 207 206 204 210 210 203 198 197 197 189 191 166 136 127 113 69 66 75 47 105 174 222 213 215 235 213 213 220 219 195 185
267 342 134 103 110 96 119 145 179 131 74 5 229 167 192 172 138 256 14 104 22 335 1 51 359 315 303 290 248 282 345 322 303 331 283 269 273 283 269 264 272 254 248 249 263 271 255 253 281 290 268 237 236 235 230 212 216 210 211 195 193 190 187 192 187 177 165 174 168 161 164 169 179 199 178 201 211 204 206 213 195 196 199 200 215 213
187 5 92 158 142 134 137 165 211 139 155 116 238 167 146 138 119 119 111 77 11 146 354 8 152 269 320 293 287 324 336 306 312 263 270 294 302 280 260 269 271 266 278 272 271 276 278 262 259 272 272 246 242 246 221 217 215 214 207 194 191 192 187 178 172 169 168 175 181 187 195 198 200 206 215 213 213 203 214 193 193 204 198 202 203 211
97 63 72 67 100 121 141 179 219 148 122 202 254 122 114 110 125 150 104 105 183 252 294 38 96 218 306 284 260 321 321 301 313 298 305 311 299 294 286 279 277 275 264 269 275 278 268 268 240 256 251 253 247 268 244 228 218 209 208 187 190 181 170 167 160 170 180 184 187 194 203 206 209 210 215 199 208 202 174 191 205 198 205 204 209 208
121 153 150 136 83 111 175 220 174 137 127 219 199 122 118 129 135 113 90 103 146 23 280 331 329 299 253 267 316 352 330 307 290 291 302 301 301 302 307 304 297 279 267 253 263 270 274 278 280 267 280 288 296 281 241 232 223 217 192 172 155 163 157 165 166 174 189 192 189 196 199 211 222 217 223 182 162 177 170 196 204 206 212 210 212 216
349 152 215 145 125 173 239 339 150 95 95 248 129 93 95 81 72 89 101 79 339 67 273 232 354 195 277 277 330 333 233 265 269 283 285 285 299 308 317 321 315 307 295 259 242 260 274 270 277 289 290 356 338 320 317 20 116 129 124 138 142 162 162 161 169 178 188 195 187 194 202 211 218 215 208 150 176 182 169 201 203 210 216 218 217 214
222 312 174 88 174 176 129 42 127 9 108 132 108 76 43 39 29 31 64 84 58 358 253 255 303 151 295 275 231 144 213 199 258 302 287 303 324 321 303 290 304 315 318 318 303 262 253 274 291 341 39 4 17 33 82 77 98 115 130 136 154 174 159 165 178 178 190 193 190 201 203 209 213 208 196 189 198 175 175 207 212 206 215 212 219 213
25 4 71 189 91 114 106 75 25 71 92 119 97 127 77 1 11 29 346 32 116 270 261 275 279 31 182 290 289 238 280 233 200 249 283 306 317 312 312 312 310 303 302 308 323 324 339 353 4 19 24 7 2 56 57 87 103 127 140 146 160 164 170 175 178 181 193 190 201 207 204 210 214 201 197 205 209 200 205 205 212 211 207 224 229 231
42 95 247 350 200 125 124 87 359 1 352 80 91 73 109 235 37 292 13 280 214 200 240 332 191 353 241 232 258 291 264 247 217 219 235 261 294 301 305 302 298 296 312 313 314 321 327 12 354 358 342 348 19 15 357 96 125 132 139 156 163 199 187 185 179 189 195 196 206 204 208 215 208 206 205 211 216 204 211 206 212 193 210 207 215 221
274 285 13 322 64 226 144 126 140 165 331 105 131 136 101 105 59 242 277 256 307 293 266 311 233 268 252 272 244 246 258 163 209 218 229 239 258 282 284 301 313 314 309 308 313 305 294 302 61 300 292 310 312 339 339 14 138 142 155 167 180 213 188 188 184 196 200 212 212 208 210 212 202 212 206 213 212 213 211 204 212 208 208 209 212 210
114 298 255 144 219 160 151 157 175 158 159 204 58 136 174 142 155 206 195 205 215 205 288 281 66 231 112 241 221 217 250 273 259 256 258 260 258 260 282 288 296 304 306 329 318 297 288 313 356 320 295 304 308 315 349 37 108 129 173 176 204 224 213 193 202 196 209 216 215 214 216 215 205 213 209 215 211 208 207 212 215 218 216 215 219 212
201 199 274 313 253 159 166 261 109 99 45 350 160 84 88 224 138 132 209 142 232 351 356 241 216 190 177 278 283 243 279 287 277 278 245 262 258 290 302 317 293 290 298 329 322 316 310 341 337 320 310 307 310 318 335 357 39 169 220 215 223 221 213 206 203 211 210 218 211 211 213 218 212 214 212 218 211 213 205 211 208 220 216 221 220 222
41 223 355 309 53 82 104 270 352 136 179 221 105 193 206 128 98 98 63 13 78 44 259 159 309 288 297 321 277 316 305 278 313 300 309 267 280 316 318 330 287 283 305 319 308 305 315 329 337 16 296 285 295 302 274 256 210 202 208 215 246 248 241 220 213 213 209 212 206 219 216 216 212 210 211 213 214 213 212 209 213 216 221 218 217 223
146 223 344 69 157 353 234 100 104 32 141 94 173 228 173 135 124 125 210 352 63 187 265 84 235 298 21 283 327 343 289 278 291 273 281 288 298 322 302 289 289 306 307 282 280 282 281 286 306 316 271 230 223 219 238 241 223 208 199 196 224 242 236 235 216 214 208 208 213 218 218 219 215 214 218 217 220 214 210 215 216 218 222 216 214 209
120 88 329 8 20 291 347 255 45 4 41 142 198 192 113 222 203 322 90 251 159 267 272 298 281 261 188 239 333 0 214 249 254 257 297 280 284 284 303 311 312 315 337 351 347 349 345 325 301 288 291 256 224 234 226 237 230 213 211 208 207 231 238 240 229 217 219 212 217 216 218 215 217 220 223 224 225 217 213 215 211 214 220 218 207 210
65 139 286 344 122 296 2 96 194 204 349 43 96 83 95 101 157 124 197 177 124 241 52 288 36 254 197 215 202 220 231 222 238 279 255 233 247 261 286 283 269 308 325 316 320 312 304 308 315 331 349 354 350 345 330 299 254 205 209 213 229 248 253 276 258 230 222 221 220 227 221 223 217 218 216 218 217 221 221 218 213 216 215 216 209 209
157 122 186 303 295 75 188 200 215 156 147 83 89 155 145 35 224 105 29 128 183 174 182 247 312 279 260 216 188 217 211 220 196 214 237 238 253 257 266 256 277 301 290 296 297 322 342 356 356 356 354 339 325 324 346 9 357 334 334 325 326 311 305 284 267 248 242 221 230 227 227 223 215 224 220 223 220 225 228 224 218 216 216 206 216 202
100 174 178 123 71 225 237 267 179 170 179 165 164 190 171 130 138 158 254 35 95 123 231 135 260 245 271 180 204 210 224 222 246 235 246 243 249 261 266 286 142 355 282 255 279 296 332 343 342 342 350 352 4 358 353 339 344 331 320 312 318 317 281 276 274 250 251 237 236 232 235 231 226 223 222 226 224 225 226 224 218 214 205 215 220 201
142 127 105 174 202 200 201 20 271 336 76 184 167 224 176 166 108 125 193 243 43 255 106 162 302 273 240 211 219 242 305 276 235 217 222 218 237 242 288 291 308 241 252 243 260 336 324 311 309 319 320 320 319 308 312 314 313 298 302 304 290 281 275 260 266 259 242 237 240 239 232 230 231 222 228 231 233 234 232 230 223 203 211 220 221 217
84 96 95 329 316 318 321 316 37 63 90 336 306 94 146 200 180 170 160 177 163 167 131 332 261 254 295 19 268 253 265 274 271 208 227 269 266 272 268 278 250 251 253 269 5 12 307 304 325 342 344 336 329 317 305 299 295 292 285 281 281 272 274 275 255 249 237 237 246 246 234 229 232 226 233 238 239 242 238 231 228 214 219 219 209 218
157 260 137 117 25 345 343 346 354 348 104 205 183 209 189 92 80 136 104 95 159 218 172 131 231 266 271 329 312 334 347 285 245 256 223 269 288 249 241 253 254 258 289 14 31 350 324 357 351 325 287 289 294 294 285 282 276 271 278 276 264 266 266 261 248 238 245 237 249 249 236 237 230 237 243 245 246 247 239 229 226 218 226 224 224 217
181 172 138 156 180 188 197 196 214 209 198 201 216 151 179 147 140 113 212 93 218 265 146 194 249 243 299 329 321 324 328 243 285 256 231 219 222 271 262 250 290 313 342 348 348 6 355 333 324 327 337 338 336 331 323 308 293 285 273 269 251 252 271 274 278 258 255 247 244 249 244 254 250 246 249 252 253 248 242 237 229 227 229 220 233 231
168 154 195 189 195 207 212 194 53 104 97 191 219 159 191 187 179 172 104 137 213 213 172 225 226 248 241 309 277 245 230 177 180 253 215 224 252 253 249 287 291 301 310 314 313 297 328 342 283 248 243 265 298 294 288 310 325 321 315 315 314 276 286 294 292 274 249 247 241 259 292 287 260 251 253 250 250 248 245 240 234 227 233 222 226 231
83 181 224 209 225 226 195 162 212 148 168 207 181 189 186 177 180 178 182 219 216 107 260 231 228 251 248 210 243 240 245 250 252 227 235 263 256 252 307 328 312 311 301 286 304 328 325 310 328 348 353 351 347 340 349 351 344 337 336 330 335 340 335 321 318 299 257 243 277 326 310 288 267 255 252 250 248 247 244 242 235 232 235 223 229 231
143 193 253 155 250 236 121 177 177 190 187 193 195 183 183 188 179 187 215 227 182 190 231 240 160 221 252 207 209 218 199 202 207 216 212 223 273 298 322 303 304 281 278 316 333 43 14 359 343 343 355 353 353 358 351 346 344 344 340 327 320 305 281 253 235 240 298 353 344 311 296 294 284 270 265 259 257 253 249 244 240 238 233 231 239 238
112 241 196 158 228 245 214 173 181 181 211 191 201 196 193 181 192 200 216 221 212 217 230 247 195 221 242 231 194 228 206 208 230 254 312 285 247 239 207 247 263 282 313 322 323 360 350 340 342 341 341 352 358 352 347 342 338 333 326 322 320 322 332 342 350 356 348 341 319 308 310 305 300 292 279 274 263 258 255 250 246 242 241 240 241 244
151 252 109 133 173 261 216 146 157 196 183 217 237 206 196 200 205 209 216 227 227 249 262 268 269 267 257 209 187 250 221 222 323 258 228 234 243 235 250 269 283 305 305 292 303 322 322 325 334 346 360 350 348 341 335 329 324 328 327 334 339 342 342 348 341 347 337 312 312 317 315 314 304 303 290 276 276 273 266 259 253 250 251 252 249 245
151 244 67 90 182 275 214 159 184 102 152 226 251 231 209 200 215 223 224 226 200 220 232 244 256 257 262 113 201 188 136 180 211 234 251 256 267 309 295 277 276 270 264 267 290 311 328 350 357 359 350 338 331 332 336 331 330 334 339 337 340 336 336 347 354 344 332 315 315 315 309 303 303 302 293 292 278 269 261 260 256 255 254 258 257 252
142 130 133 138 172 243 326 130 117 111 73 281 244 231 216 213 211 221 232 232 219 210 221 219 238 243 241 172 176 215 184 209 213 220 244 271 261 232 236 240 241 247 253 263 279 297 306 319 321 315 321 326 322 328 317 313 323 331 329 330 323 330 341 344 350 344 339 334 323 313 311 307 303 295 293 286 280 274 270 259 260 257 256 253 251 259
102 112 159 163 171 243 18 123 122 105 216 229 230 222 201 208 199 204 220 222 226 195 213 218 237 257 97 179 177 197 203 210 212 229 211 212 221 228 238 239 237 235 255 259 245 258 284 294 312 310 295 284 287 283 284 288 280 296 297 293 305 330 336 347 346 355 339 336 337 328 325 319 311 302 293 292 288 283 274 265 257 255 252 260 260 247
114 101 149 178 141 199 201 126 122 213 234 236 341 144 200 214 199 211 226 226 227 226 242 266 271 263 233 211 202 193 205 229 219 220 243 234 207 208 212 213 202 192 179 151 9 336 301 301 316 329 336 332 320 306 311 316 322 319 327 335 339 351 346 352 346 351 346 341 335 337 338 335 328 316 311 304 295 290 279 268 272 267 261 254 250 249
174 155 168 76 155 101 135 170 219 223 215 324 282 235 353 141 205 205 259 260 242 217 213 233 244 248 254 238 228 204 199 232 256 240 243 267 186 186 147 155 166 155 105 126 100 311 322 335 328 316 309 312 323 317 316 332 337 347 334 325 344 341 349 345 351 348 348 343 338 336 331 331 323 317 314 312 308 299 288 278 267 272 270 261 260 255
171 120 133 225 193 211 165 201 231 8 320 274 259 237 159 152 148 168 228 245 233 217 206 224 239 251 255 252 244 229 220 138 259 265 273 209 111 136 136 140 141 139 124 40 186 299 291 288 302 297 302 312 314 325 342 341 347 348 341 356 354 353 347 358 0 355 346 337 333 331 328 327 321 316 314 312 310 301 293 290 283 272 254 261 258 257
158 179 183 199 225 183 211 234 210 192 240 244 235 275 202 170 169 181 186 253 227 215 210 209 230 241 247 253 243 196 104 214 276 263 247 239 224 139 62 89 81 106 136 250 316 303 310 312 307 307 275 303 327 333 336 350 352 351 348 347 344 348 346 1 356 343 336 328 327 322 321 318 314 310 309 310 305 300 296 287 277 272 252 254 267 264
201 189 167 190 211 146 204 231 226 218 239 237 263 201 188 166 144 115 169 254 245 177 188 193 226 240 242 237 221 121 134 219 248 252 216 185 191 163 119 116 90 113 133 184 163 357 341 333 311 294 332 349 5 347 348 345 344 350 345 346 344 345 355 360 347 346 338 328 322 317 314 310 306 300 299 298 294 294 295 293 289 286 269 257 263 266
187 192 166 205 211 206 219 225 234 214 256 262 230 248 224 132 121 107 188 249 237 140 188 189 212 228 231 225 145 164 175 226 246 241 180 175 160 169 136 144 133 113 55 347 348 289 313 316 21 25 20 14 348 328 343 341 353 7 360 351 346 357 358 346 336 322 316 311 313 309 312 310 308 300 297 298 296 293 285 290 296 291 284 275 259 272
189 193 196 208 209 214 213 240 268 276 268 216 200 198 169 182 127 168 217 234 181 195 189 187 212 228 214 163 148 184 220 220 220 148 127 128 102 95 40 71 117 139 88 51 17 24 53 322 45 37 16 352 336 345 354 6 10 3 354 344 348 350 340 326 319 320 316 316 314 316 313 312 305 307 301 288 291 293 292 290 286 290 286 282 281 272
200 186 207 206 217 216 213 228 233 272 230 173 338 142 176 112 210 213 231 192 163 211 238 193 219 230 132 175 190 204 97 89 87 86 111 119 123 128 106 95 78 48 16 18 36 30 22 20 18 16 16 9 359 352 3 13 8 350 346 346 344 335 325 322 321 320 321 320 319 315 316 315 313 297 294 300 301 304 298 284 275 275 280 280 280 283
176 184 183 195 204 220 212 230 223 233 280 141 120 83 280 183 227 200 153 91 178 207 195 232 217 234 145 123 141 134 128 93 107 115 117 116 109 107 96 87 68 57 37 19 14 11 19 12 5 0 357 354 2 3 3 21 4 344 335 335 321 325 323 320 320 322 319 316 316 318 316 315 314 315 314 306 300 296 297 302 302 293 285 285 287 281
174 190 189 213 181 211 205 218 215 210 158 175 150 202 190 205 195 166 150 200 273 155 168 158 294 200 167 136 137 122 122 122 102 117 104 98 108 108 105 80 77 62 45 42 48 13 12 2 358 350 358 3 7 3 5 16 359 343 343 335 333 331 325 327 327 324 324 322 321 321 322 321 319 317 317 313 313 309 303 305 303 295 286 278 277 283
203 204 176 203 176 195 208 213 232 208 174 214 199 20 223 195 105 176 147 159 157 228 176 144 175 156 154 132 125 133 122 119 129 133 121 129 103 92 82 74 73 64 46 40 27 13 19 2 343 338 347 11 12 8 9 9 358 344 340 330 339 331 332 331 332 332 328 326 323 323 319 317 315 313 311 308 305 308 306 303 304 303 293 259 269 267
317 201 85 92 267 310 292 199 178 356 253 267 234 165 290 283 40 132 140 135 237 174 174 165 158 146 141 141 120 92 122 145 126 112 106 106 103 78 70 51 35 33 30 30 18 13 2 354 351 350 344 350 6 5 6 5 358 349 327 325 324 323 323 325 326 326 324 321 319 319 318 317 315 313 304 298 287 270 270 278 291 290 289 284 265 263
244 170 149 190 271 193 253 186 210 230 232 326 282 19 18 3 214 177 192 219 164 142 130 98 137 143 144 134 126 135 141 139 119 109 96 83 68 49 41 40 25 23 14 6 358 355 355 354 352 345 342 335 343 355 349 355 348 323 312 316 313 320 323 324 324 320 322 323 319 315 315 311 311 314 313 303 291 275 265 262 267 271 278 274 271 269
288 179 166 210 217 190 231 264 308 313 252 249 189 172 209 201 46 36 147 110 115 98 102 126 127 114 123 116 135 127 129 122 122 123 105 84 79 67 56 34 18 6 2 2 342 351 348 351 348 339 337 335 338 349 342 341 332 318 314 309 315 321 325 324 325 324 320 318 313 311 315 314 311 313 310 310 311 306 304 277 242 260 268 275 271 272
203 109 219 184 204 231 298 316 322 357 341 272 252 245 228 173 130 113 120 123 127 113 100 63 51 98 103 127 126 121 112 88 82 97 99 86 77 72 51 36 4 356 343 350 341 0 350 344 343 337 335 326 333 336 334 328 323 318 319 325 335 337 339 335 332 328 325 324 322 318 319 313 312 311 311 308 308 295 265 277 291 276 271 261 236 233
95 198 208 136 213 204 206 218 153 204 261 257 237 205 170 178 144 135 128 122 133 128 127 109 79 59 70 62 96 117 119 109 82 82 91 79 72 52 34 6 352 338 334 332 352 336 354 351 345 338 334 330 334 335 328 326 321 318 327 345 348 354 354 344 336 330 328 327 322 318 319 318 313 312 309 307 306 309 306 276 240 249 270 283 271 236
197 202 160 189 186 226 222 221 195 212 226 229 205 150 147 151 148 138 144 137 120 122 135 126 119 87 71 52 44 96 105 112 103 99 102 96 81 57 24 9 349 328 324 339 335 339 349 342 341 334 332 328 331 324 320 318 318 326 354 354 7 9 0 351 338 326 319 322 317 314 312 307 305 305 302 299 300 301 298 306 304 273 252 256 273 271